Location: Pl�tzky
(52.0521°N, 11.8020°E)
Time: 08:06:19
(UTC+00:00)

YAOGAN 6 - Pass Details

Date: 22 November 2019
Orbit: 467 x 504 km, 97.0° (Epoch: 11 December)

Event Time Altitude Azimuth Distance (km) Brightness Sun altitude
Rises 17:05:19 0° 161° (SSE) 2,496 6.1 -16.7°
Reaches altitude 10° 17:07:22 10° 159° (SSE) 1,623 5.1 -17.1°
Maximum altitude 17:10:50 74° 75° (ENE) 493 2.3 -17.6°
Drops below altitude 10° 17:14:21 10° 350° (N) 1,641 5.2 -18.1°
Sets 17:16:25 0° 349° (N) 2,527 6.2 -18.4°
